Lid_Strength_Index
0 0 1 1 1 2 2 2 2 2 2 2 2 2 2 2 2 2 2 2 2 1 1 1 1 1 2 3 3 1 -4 -2 2 3 2 3 5 5 6 5 5 5 5 4 4 4 4
1 1 1 1 2 2 2 2 2 2 2 2 2 2 2 2 2 2 2 2 2 2 2 1 1 1 2 6 0 0 0 2 2 2 3 3 4 3 4 5 5 4 5 4 4 4 4
1 1 1 2 2 2 2 2 2 2 3 2 2 2 2 2 2 2 2 2 2 2 2 1 1 2 3 3 1 1 1 2 2 2 4 2 2 3 3 5 3 4 6 5 5 4 5
1 1 1 2 2 2 3 3 3 2 3 3 3 3 3 2 2 2 2 3 3 2 1 1 1 2 4 1 -0 1 1 2 2 2 2 2 2 3 4 3 4 6 6 8 5 5 5
1 2 2 2 2 3 3 3 3 3 3 3 3 3 3 3 3 3 3 3 2 1 1 1 2 2 4 1 2 1 1 2 2 2 2 2 2 4 4 6 7 7 9 8 7 5 5
2 2 2 2 3 3 3 3 3 3 3 3 3 3 3 3 3 3 3 3 1 2 2 1 1 3 2 4 3 2 1 2 3 3 3 4 4 5 5 7 10 9 9 8 8 6 6
2 2 2 2 2 3 3 3 3 3 3 3 3 3 3 3 3 3 3 1 3 4 2 4 3 3 3 2 2 3 2 3 3 4 6 4 6 8 7 6 6 7 8 8 7 5 6
2 2 2 2 2 3 3 3 3 3 3 4 4 3 3 3 3 4 3 3 2 2 5 2 2 2 2 2 4 3 2 5 5 7 5 6 8 6 5 6 7 7 8 8 7 6 6
2 2 2 2 2 3 3 3 4 4 4 4 4 4 4 3 4 3 3 2 -0 0 4 4 3 4 3 3 4 4 3 3 5 6 6 7 7 5 6 6 7 7 8 8 8 7 6
2 3 2 2 3 3 3 4 4 4 4 4 4 4 4 4 4 1 3 1 0 0 7 6 5 4 3 3 5 2 2 3 5 6 6 6 5 6 7 7 6 8 6 7 7 8 10
2 2 3 3 3 3 4 4 4 4 4 4 4 4 4 5 4 3 1 0 -0 1 15 7 5 1 3 4 4 4 2 3 6 6 6 7 7 7 7 7 6 8 6 7 7 8 9
3 3 3 3 3 4 4 4 4 4 4 4 4 4 4 2 3 2 0 0 1 8 13 7 5 5 5 4 4 4 4 3 3 5 5 6 5 6 6 6 6 5 6 7 7 8 12
4 4 4 4 4 4 4 4 4 4 4 4 4 4 4 2 2 0 0 2 8 12 6 7 7 5 6 6 6 5 6 6 7 9 9 7 7 5 5 7 5 6 8 12 12 13 13
4 4 4 4 4 4 4 4 4 4 4 4 4 5 2 0 -0 0 2 5 11 8 7 6 6 6 7 6 6 6 6 7 6 6 8 9 11 7 6 6 8 8 8 11 15 14 12
5 4 3 3 4 4 4 4 4 5 4 5 5 -0 0 -0 -1 -0 3 9 9 7 6 7 6 7 7 6 6 6 7 7 6 6 9 10 9 6 6 5 6 8 9 7 10 9 12
4 4 3 3 3 3 4 4 4 4 4 4 4 1 2 -1 -1 1 6 9 7 5 5 6 8 7 8 7 7 7 7 6 6 5 5 7 10 6 6 5 5 7 6 10 9 14 15
5 4 4 4 3 3 3 4 4 4 4 4 2 4 1 -1 -0 4 8 7 6 4 5 6 7 7 7 8 7 8 7 6 5 6 5 6 8 9 6 8 8 8 9 8 8 10 14
5 5 4 4 3 3 4 4 4 4 5 4 2 6 1 -0 5 5 7 5 7 5 4 5 5 6 7 7 7 8 8 7 5 5 7 6 8 11 9 6 6 6 8 8 11 12 10
5 5 4 4 3 3 3 4 4 4 4 5 4 4 0 1 8 7 5 6 5 5 5 5 6 5 5 7 8 7 7 5 5 6 7 7 9 12 11 8 6 8 7 7 7 8 12
6 5 5 4 4 3 3 3 3 4 4 4 4 6 4 3 4 6 7 6 6 4 5 5 5 5 6 7 6 8 7 6 5 5 4 5 8 10 13 10 8 9 8 7 8 13 11
6 5 5 4 4 3 3 3 3 4 4 3 3 5 4 7 6 5 5 6 7 7 5 4 6 6 7 8 7 8 6 6 5 6 5 6 10 9 8 8 7 8 8 8 9 8 11
5 5 5 5 5 4 3 3 3 4 5 2 5 5 4 5 6 6 6 7 7 6 6 7 6 6 6 7 7 8 7 7 7 6 6 6 10 8 10 8 8 9 8 8 8 8 8
4 4 5 5 5 5 4 3 3 4 4 2 2 1 4 5 5 6 6 6 6 5 5 5 5 6 6 6 5 5 4 5 5 6 7 7 9 10 12 9 8 11 8 8 7 7 8
4 4 4 4 5 5 4 3 4 4 4 3 2 2 5 7 6 6 5 5 6 5 6 5 4 6 5 3 3 4 4 5 5 5 5 8 8 9 12 10 16 9 6 6 7 7 6
4 4 4 4 5 4 4 4 3 3 4 4 2 3 4 7 5 5 5 5 5 4 5 5 4 4 2 4 7 8 8 8 7 6 6 6 8 12 14 14 10 9 7 8 8 8 6
5 4 4 5 5 4 4 4 3 2 3 4 2 0 3 6 6 4 5 5 6 6 5 5 3 2 3 6 8 11 12 9 10 9 6 6 7 11 12 16 16 10 7 5 5 11 6
5 5 4 5 5 5 5 4 4 3 3 3 3 -1 2 6 4 4 5 6 4 5 6 5 5 5 4 7 9 10 10 7 10 11 11 10 10 12 13 14 11 6 5 5 11 11 5
4 4 4 4 4 4 4 4 4 3 3 4 3 0 2 4 4 3 3 4 4 4 7 6 6 6 6 8 9 9 9 8 8 7 10 11 12 12 11 13 16 5 6 9 7 5 4
3 4 4 4 4 4 4 4 4 3 2 3 5 1 1 4 4 2 1 1 2 2 4 4 5 5 5 7 7 7 9 8 8 11 6 11 8 11 10 11 6 4 5 4 4 5 4